Theta_e
305 295 292 291 295 297 299 299 298 299 298 297 297 296 293 293 294 297 298 297 297 295 293 294 295 295 296 297 296 297 297 296 296 295 295 295 295 295 295 295 295 295 295 297 298 298 299 300 300 301 301 301 302 304 304 304 305 306 305 305 304 306 306 305 304 303 302 300 298 298 296 295 296 295 295 294 294 294 294 295 295 295 295 295 295 295
302 294 294 298 299 300 300 300 300 298 298 296 296 294 292 295 292 297 297 295 297 295 292 295 294 295 297 299 297 296 296 295 296 295 295 295 295 295 295 295 295 295 296 297 296 297 298 298 300 300 300 301 301 302 303 303 303 304 304 303 303 304 304 303 301 300 299 298 296 294 294 293 293 293 292 291 292 292 293 293 293 293 293 293 293 293
294 292 297 300 302 302 300 299 298 297 297 297 294 293 292 292 296 298 299 296 296 294 291 294 293 295 297 298 297 296 295 296 297 296 296 295 294 294 295 295 294 295 294 294 294 297 297 298 299 298 298 299 300 301 301 302 303 303 302 302 302 301 301 301 301 299 298 298 296 295 293 292 291 291 291 291 291 291 291 292 292 292 292 292 292 292
291 295 299 302 301 299 298 298 298 298 298 293 293 291 289 295 293 290 294 295 295 294 293 293 292 294 298 300 297 296 296 294 295 295 295 296 294 294 294 294 294 294 293 293 293 294 295 296 296 297 297 298 300 300 300 301 302 302 301 301 300 299 298 298 297 296 295 295 294 293 292 291 290 289 290 290 291 291 291 290 291 291 292 292 292 292
295 300 303 301 300 298 297 297 295 293 291 295 295 293 292 294 295 294 294 295 295 295 296 293 291 292 295 295 292 292 293 294 293 293 294 294 295 294 295 295 295 294 294 293 293 294 294 295 295 296 297 298 297 298 299 300 301 301 301 301 300 299 298 297 295 294 293 293 292 292 291 291 290 290 289 289 289 289 290 290 290 290 291 291 291 291
297 301 303 300 299 297 297 295 295 295 291 293 297 295 295 296 295 296 297 296 291 290 295 292 283 284 293 295 293 291 290 290 292 291 291 292 292 292 292 292 293 295 294 293 293 293 294 294 295 296 296 296 296 296 298 299 300 300 300 300 300 299 298 297 296 295 294 293 292 290 288 287 286 286 286 286 286 287 288 288 289 290 291 291 291 291
298 300 301 299 297 297 297 295 298 297 291 290 292 299 299 297 296 296 295 294 284 282 292 296 284 283 291 292 292 289 290 290 290 290 291 292 292 291 292 292 292 292 292 293 293 293 293 294 294 295 295 294 294 295 297 297 297 298 298 297 297 296 296 297 295 294 293 291 290 289 288 287 287 286 287 288 288 288 288 289 289 289 290 290 290 290
298 297 298 299 298 297 295 293 298 298 294 289 296 299 298 296 295 294 294 293 289 294 294 293 291 283 284 290 292 291 290 289 289 290 291 291 291 291 292 292 292 292 291 292 292 292 293 293 293 292 293 293 293 294 294 294 295 295 295 294 294 294 293 294 294 293 292 290 290 289 288 288 287 287 287 288 288 289 289 289 288 289 289 289 290 289
298 295 297 297 296 294 294 297 300 300 295 293 296 299 296 297 296 295 293 290 289 288 283 287 291 284 283 290 292 292 288 289 288 289 290 290 291 291 292 292 292 292 292 292 291 291 291 291 291 291 291 292 292 293 292 293 292 293 293 292 292 292 292 292 292 291 291 291 289 289 288 288 288 289 289 289 289 288 289 288 288 288 288 288 289 289
298 298 299 299 296 293 297 295 298 301 295 296 298 297 296 297 295 295 289 288 286 285 282 286 291 284 284 290 288 290 289 290 290 290 291 291 290 291 291 291 292 292 292 292 292 291 291 290 290 291 291 291 291 292 293 292 292 292 291 291 291 291 291 291 291 291 290 290 290 289 289 288 288 289 289 288 288 288 287 287 287 287 287 287 287 287
298 297 298 299 297 299 293 293 295 296 297 298 297 295 293 292 290 289 289 287 284 282 284 289 292 289 281 288 289 288 289 293 292 291 291 291 290 291 291 291 291 291 291 291 290 290 290 290 290 290 290 290 291 291 291 291 290 290 290 289 289 290 290 291 291 291 290 290 290 289 289 289 288 288 288 288 287 287 287 287 286 286 287 286 286 286
296 297 297 298 298 297 297 293 295 296 297 297 292 289 290 287 287 286 284 286 280 280 283 289 290 291 282 283 292 292 293 295 293 291 290 290 290 291 290 291 291 290 290 290 290 289 289 289 289 289 289 289 289 290 290 289 290 289 289 289 289 289 290 290 291 291 291 291 290 290 290 289 289 289 288 287 286 286 286 286 286 286 285 285 286 285
293 293 297 297 298 299 295 292 292 294 294 294 291 289 283 282 281 278 282 277 279 279 282 283 288 286 286 291 291 291 293 294 295 294 292 291 290 290 290 290 290 290 290 289 289 288 288 288 288 288 288 288 288 288 288 289 288 288 288 288 288 288 289 290 290 290 290 290 289 289 289 289 289 288 288 287 287 286 286 285 285 285 284 284 284 284
291 296 296 295 295 298 298 291 286 284 289 291 289 285 282 280 278 274 278 280 280 281 282 283 286 281 286 291 296 293 292 292 293 295 293 292 291 291 290 290 290 290 289 289 289 288 288 288 288 288 288 288 288 288 288 288 287 288 288 288 288 288 288 289 289 289 289 289 289 289 289 289 288 288 287 287 287 286 286 286 285 284 284 284 284 284
284 284 292 292 288 297 297 297 294 290 289 291 293 291 286 284 280 275 279 277 278 280 280 283 282 280 281 286 288 289 290 291 292 294 293 293 292 291 291 290 290 289 289 289 288 288 288 289 288 288 288 287 287 287 288 287 287 287 287 287 287 287 288 288 288 288 288 289 289 288 288 288 288 288 287 287 287 286 286 285 285 285 285 284 285 284
289 289 294 298 295 297 295 298 300 294 289 290 293 294 286 285 287 282 282 281 279 280 278 278 280 283 286 288 289 289 289 290 292 293 293 292 292 291 290 289 289 289 289 289 289 288 288 288 288 288 288 287 287 287 287 287 287 287 287 287 287 287 288 288 288 288 288 288 288 287 287 288 288 287 287 287 287 286 286 285 285 285 284 285 284 285
288 286 291 295 297 295 293 298 297 298 284 288 290 285 289 292 290 284 280 280 280 279 278 282 282 285 288 287 288 288 288 289 290 292 292 291 291 290 289 289 289 289 289 289 289 289 288 288 288 288 287 287 287 287 287 287 287 287 287 287 287 287 287 287 287 287 287 287 287 287 287 287 287 287 286 286 286 286 286 285 285 284 284 285 285 286
288 289 290 291 289 292 292 293 296 294 296 290 283 288 292 294 291 285 280 281 279 278 280 281 280 280 282 282 286 286 286 286 288 289 291 291 290 289 289 289 290 289 290 290 290 289 289 288 288 288 287 287 287 287 287 287 287 287 287 287 287 287 287 287 287 287 287 287 287 287 287 287 287 287 286 286 286 286 285 285 285 284 284 283 284 284
297 286 287 291 291 291 292 294 293 295 295 290 288 295 289 282 281 285 282 277 276 277 278 279 281 283 284 286 283 284 286 286 287 289 290 289 290 289 290 290 290 290 290 289 289 289 288 288 288 288 287 287 288 287 287 288 288 287 287 287 287 287 287 287 287 287 287 287 288 287 287 286 287 287 286 286 286 285 285 284 284 283 283 283 282 282
294 286 285 287 290 291 291 290 284 286 293 294 294 288 291 285 284 282 284 283 282 279 277 280 282 280 287 288 286 288 288 288 288 288 289 290 290 290 290 290 290 289 289 289 289 289 289 289 289 288 287 287 287 287 287 287 287 286 287 287 286 287 287 286 286 287 286 287 287 287 286 286 287 286 286 285 285 284 284 283 283 282 281 281 281 279
289 291 283 284 290 290 282 287 286 289 286 285 284 283 286 285 286 285 285 284 281 278 278 278 277 281 287 290 290 291 291 290 289 289 290 291 291 291 291 291 290 290 290 289 290 289 289 288 288 287 287 287 286 286 287 286 286 286 286 286 286 286 286 286 286 286 286 286 286 286 286 286 285 285 285 284 284 283 282 282 282 281 280 279 278 278
289 287 286 284 283 283 286 292 292 292 292 290 288 286 289 286 283 281 281 285 283 282 278 279 279 282 290 292 290 291 292 292 292 290 290 290 291 291 291 291 291 290 290 290 290 289 289 288 288 287 287 286 285 285 285 286 285 285 285 286 286 286 285 286 286 286 286 286 286 285 285 285 284 284 284 282 281 281 281 280 280 279 279 278 278 277
295 289 288 284 284 286 290 290 292 291 290 292 291 288 291 288 286 284 280 280 282 283 282 280 277 281 288 289 289 289 290 292 292 291 291 291 291 291 291 291 291 291 290 290 290 289 289 288 288 287 286 285 285 285 284 284 285 285 284 285 284 285 285 285 286 286 286 285 284 283 283 283 283 282 281 281 280 280 279 279 278 278 278 278 278 278
294 288 285 287 288 288 289 291 290 290 291 289 289 288 289 288 289 287 286 284 282 282 280 279 279 283 287 290 288 289 289 289 292 292 291 291 291 291 291 291 291 291 289 289 289 289 288 288 287 286 285 285 284 284 284 284 285 285 284 284 284 284 284 285 285 285 284 283 283 282 282 283 282 281 281 280 279 279 279 279 279 279 278 279 278 277
290 287 288 284 284 283 283 286 286 287 288 285 286 289 290 291 291 288 286 287 284 284 283 281 279 283 288 289 288 288 289 289 290 291 292 291 289 291 291 291 291 290 290 289 289 288 287 287 286 286 285 285 284 283 284 284 284 284 284 284 284 284 284 284 284 284 283 283 282 282 282 282 281 280 280 279 279 279 279 279 278 277 276 276 276 275
291 288 287 283 280 278 278 278 279 281 284 287 287 288 290 290 289 286 284 286 282 285 285 283 283 286 289 288 289 289 288 288 289 290 291 291 291 291 290 291 291 290 289 289 288 287 287 287 286 285 284 284 284 284 284 284 284 284 285 284 284 284 284 283 283 283 282 282 282 282 282 281 280 280 279 279 278 278 277 277 276 276 275 274 275 273
288 289 290 289 287 285 286 285 285 287 284 283 285 287 288 289 291 289 286 284 283 284 284 287 286 285 286 287 287 288 287 286 287 288 290 289 289 290 290 290 290 289 289 288 288 287 285 285 285 286 285 285 284 283 283 284 284 284 284 284 283 283 284 283 283 283 283 283 282 282 281 280 280 280 279 278 278 278 277 276 275 274 273 273 273 272
287 286 289 290 289 290 287 287 288 290 285 286 286 285 288 288 288 288 286 284 287 283 282 286 288 285 285 287 287 286 287 287 288 289 287 289 289 290 290 289 290 288 288 287 287 286 286 286 286 285 285 284 284 283 283 284 284 284 284 284 283 283 283 284 283 283 282 282 281 281 281 280 280 279 279 278 277 275 274 273 273 273 273 272 272 272
286 286 289 289 289 288 286 287 287 286 285 285 285 286 286 287 287 286 287 288 287 285 283 285 287 286 287 290 290 290 290 289 289 290 290 291 290 289 289 288 288 288 288 287 288 288 287 286 286 285 285 285 284 283 283 283 283 283 283 283 283 283 283 284 283 282 282 281 281 281 280 279 278 278 278 276 275 274 273 273 272 272 272 272 272 272
288 287 287 287 287 286 284 284 285 285 284 284 284 285 287 287 287 287 288 289 288 287 289 287 286 286 289 290 292 293 293 291 291 291 290 289 289 289 288 288 288 287 288 288 288 288 288 287 286 285 284 284 283 283 283 283 283 283 283 283 283 283 283 283 282 282 281 281 281 280 280 279 279 278 277 275 274 273 273 272 272 272 271 271 271 271
289 286 289 287 286 285 284 284 285 285 285 285 286 286 285 285 287 288 288 287 287 287 288 286 287 285 291 293 293 293 292 292 292 291 291 291 291 290 289 288 288 287 288 288 288 287 287 286 286 285 285 284 284 283 283 283 283 283 283 283 283 283 283 283 282 281 281 281 281 280 279 279 278 277 275 274 273 272 272 272 272 271 270 270 270 270
288 285 285 286 284 284 282 283 283 284 284 283 284 285 285 285 284 287 286 287 286 286 287 285 284 285 290 291 291 291 291 291 291 291 290 290 290 289 288 287 287 288 288 288 288 287 287 287 287 286 286 285 285 284 284 283 283 283 283 283 283 283 283 282 282 281 281 280 280 280 279 278 277 276 275 273 272 271 270 270 269 269 268 268 268 269
287 286 284 285 282 283 280 283 283 283 284 282 284 286 286 287 288 287 287 288 288 288 285 284 286 290 292 291 290 291 291 292 292 291 290 288 288 288 289 289 289 288 288 288 288 288 288 288 288 287 287 286 285 285 285 284 283 283 283 283 283 283 282 282 281 281 281 280 280 279 279 278 276 275 273 272 271 269 269 269 269 268 267 267 266 268
287 287 286 287 282 280 278 282 284 282 277 280 286 290 290 287 287 286 286 287 288 289 287 290 290 290 290 289 290 291 291 291 292 291 291 292 289 288 288 288 288 288 288 288 288 288 288 288 287 287 287 287 287 286 286 285 284 284 284 284 283 282 282 281 281 281 281 280 280 279 278 277 276 274 272 270 269 268 268 268 268 267 266 266 267 267
286 286 285 286 282 278 280 281 280 275 279 284 283 284 285 291 290 288 289 289 288 290 290 289 288 289 291 292 292 293 292 287 285 286 286 287 290 290 288 287 287 287 287 287 287 286 287 287 286 286 286 286 286 286 285 284 284 283 282 282 282 281 281 281 281 281 281 280 279 278 277 276 274 272 270 269 268 268 267 267 267 267 267 267 267 267
285 285 285 284 283 281 278 280 273 276 282 282 281 281 283 286 287 288 286 288 288 289 289 288 289 291 291 292 289 286 284 283 284 285 284 286 287 287 287 287 287 286 286 286 287 286 286 286 287 287 287 287 286 286 285 284 283 282 281 281 281 281 281 281 281 281 281 280 278 277 276 274 272 270 269 268 267 267 268 267 266 266 267 266 266 265
287 286 285 282 284 276 279 278 279 284 283 280 279 280 283 283 285 286 282 285 289 289 289 288 289 291 290 288 283 282 282 282 283 283 283 284 285 286 287 286 286 285 286 286 286 286 286 287 287 287 287 286 286 286 285 284 283 282 281 281 281 281 281 281 281 281 279 278 277 276 274 273 272 270 268 267 267 266 266 266 265 266 265 265 266 265
287 285 286 282 281 282 278 277 277 277 275 279 281 283 285 287 289 289 286 283 285 288 289 289 289 288 286 283 282 281 282 283 282 283 284 284 284 284 285 284 283 283 283 282 282 283 284 284 284 284 286 284 284 284 284 283 283 282 281 280 280 280 280 280 281 281 279 278 276 275 273 273 271 269 268 267 266 266 267 265 265 265 265 265 263 264
284 285 284 283 282 281 279 276 276 274 277 279 280 282 285 286 288 286 282 278 284 287 288 288 288 287 286 283 281 282 283 280 281 283 283 283 283 283 284 283 282 282 282 281 282 282 282 282 282 283 282 282 282 282 282 282 282 281 280 280 279 280 280 280 281 280 278 277 275 273 272 271 270 269 267 266 266 265 266 265 265 264 263 262 262 261
283 283 284 281 280 281 280 278 275 278 277 278 278 281 282 285 288 284 273 274 282 286 288 287 287 286 285 282 282 283 283 281 283 281 282 282 283 283 283 282 281 281 280 281 281 281 281 281 282 281 281 282 282 281 282 281 281 280 280 279 279 278 279 279 280 279 277 275 273 272 271 270 269 268 267 266 265 264 264 264 263 263 262 261 261 260
280 281 283 278 280 281 281 279 280 280 282 280 281 281 282 286 285 277 273 279 282 283 284 287 286 286 284 282 283 282 282 283 282 282 279 279 280 280 280 280 280 281 280 280 280 282 280 280 281 281 281 281 281 280 280 280 280 279 279 279 278 278 279 280 278 276 275 273 271 269 268 267 267 266 265 265 264 264 263 263 263 262 261 260 260 260
280 281 281 282 279 278 280 278 279 281 283 281 282 283 285 284 275 275 282 281 283 281 282 284 285 284 283 283 281 280 282 281 280 279 279 279 279 279 278 278 279 279 280 280 281 280 279 279 280 280 280 280 280 279 279 280 280 279 278 278 278 279 279 276 276 274 272 270 269 267 266 265 264 264 263 263 263 262 262 261 262 261 260 259 259 259
280 279 277 279 281 281 280 278 277 274 280 282 282 281 282 279 280 282 280 279 281 281 282 282 283 282 283 281 281 281 279 279 279 279 279 279 279 279 278 278 278 279 279 279 279 279 280 279 279 279 279 279 278 278 279 279 279 278 277 277 279 278 276 275 273 272 270 268 266 265 264 263 262 262 261 261 261 261 261 260 259 259 259 259 258 258
285 279 278 278 283 276 278 276 277 283 280 283 285 281 282 283 283 281 282 279 280 280 280 281 281 282 281 282 281 280 279 279 278 278 278 278 279 278 278 278 277 277 278 278 278 279 279 279 279 279 277 277 277 278 279 279 278 277 277 278 276 274 273 272 271 270 268 266 264 263 262 261 260 260 259 260 260 260 259 259 258 258 259 258 258 258
284 282 281 278 285 281 279 281 280 280 283 282 281 282 284 284 282 281 283 282 280 280 280 280 281 281 280 280 279 279 279 279 279 279 279 278 278 278 278 278 278 278 278 278 278 278 277 279 278 278 276 275 275 275 276 277 278 277 277 277 274 274 272 270 269 268 266 264 262 261 260 259 259 258 258 259 260 260 259 258 258 257 258 258 259 259
278 279 279 279 280 281 280 280 281 280 282 281 280 283 284 282 282 282 282 281 280 280 280 280 281 280 279 279 280 278 278 279 279 279 279 279 279 278 278 278 278 278 277 277 277 278 278 276 275 275 276 274 273 274 275 276 277 277 279 274 273 272 271 269 268 266 264 262 261 260 259 259 258 258 258 258 259 259 260 259 259 259 259 258 258 258
277 278 279 277 277 281 276 277 278 281 280 281 281 281 281 281 281 281 281 281 280 280 280 280 280 279 279 278 278 278 278 278 279 278 278 278 278 278 278 277 277 277 277 276 277 276 275 274 275 275 275 275 273 273 273 274 275 275 272 272 272 271 269 268 267 265 263 262 260 259 259 259 258 258 258 257 258 258 259 259 259 260 260 259 259 258
276 279 277 277 277 276 275 277 277 278 280 281 281 281 281 281 280 280 281 281 281 279 279 279 279 279 278 278 278 278 278 278 278 278 278 278 277 277 278 278 277 277 276 277 276 275 273 274 275 275 274 276 275 273 271 271 272 270 270 270 270 268 267 267 266 265 263 261 260 259 259 259 260 259 257 258 259 259 259 260 260 260 260 260 260 259
279 281 273 277 276 275 275 278 278 279 280 280 280 280 281 281 280 279 279 279 279 279 278 278 277 278 278 277 277 277 277 278 277 277 277 277 277 276 277 278 277 277 277 277 275 274 276 275 274 275 274 275 273 271 269 268 268 267 268 269 267 267 267 266 264 263 261 260 259 259 260 260 260 259 259 258 259 260 261 260 260 260 260 261 260 260
277 274 276 277 273 274 274 275 279 277 275 279 280 281 281 280 281 279 278 278 278 278 277 278 279 278 278 277 278 277 277 277 277 277 276 277 277 276 276 276 276 276 275 275 275 274 274 273 274 274 274 275 272 269 269 268 267 265 266 265 265 266 266 264 263 261 260 260 259 259 260 260 260 260 260 259 259 260 260 264 265 263 261 261 265 268
278 277 278 276 276 275 278 279 281 281 281 281 282 282 281 280 280 280 279 278 278 278 278 278 277 278 278 278 277 278 276 278 278 277 276 276 277 278 278 277 276 276 276 274 274 272 272 273 273 272 272 274 270 269 269 268 267 266 265 265 265 266 265 264 263 261 260 260 260 261 261 261 260 260 260 260 260 261 260 260 264 269 269 267 266 268
Wind_Speed
4 3 4 5 6 7 6 8 9 8 7 2 0 2 4 4 5 5 4 3 1 2 4 5 5 7 7 5 11 8 6 5 4 6 5 5 5 5 5 4 4 5 5 3 4 3 3 3 3 3 3 4 6 6 4 5 6 5 5 6 7 5 5 6 6 5 6 8 8 10 11 11 8 9 10 11 10 10 10 11 11 12 11 12 12 12
3 4 6 7 8 7 6 4 10 8 6 4 2 2 4 3 6 4 2 3 2 1 2 3 6 7 9 7 4 7 8 8 8 7 7 6 5 5 5 5 4 5 4 4 4 4 3 3 3 3 3 3 7 5 5 5 6 5 6 7 7 6 8 8 7 7 8 8 7 9 8 10 8 9 10 10 10 10 10 11 11 11 11 12 12 11
4 9 8 9 7 7 1 2 4 2 1 2 1 2 3 4 5 6 4 5 2 4 5 5 8 8 6 6 2 11 10 5 3 3 6 7 6 5 5 5 6 6 5 4 4 4 3 3 4 3 3 4 5 5 5 5 6 6 6 7 7 7 7 7 7 7 9 8 8 10 8 10 10 9 9 9 9 9 11 11 11 11 11 11 11 11
5 5 12 9 7 4 1 3 0 1 1 2 3 3 5 2 3 3 3 1 3 1 2 4 9 10 11 13 6 4 4 3 4 6 6 3 6 6 6 5 6 6 6 6 5 4 4 4 3 3 3 4 5 5 5 5 6 5 6 7 8 8 7 8 8 10 11 12 11 12 12 11 11 10 8 10 10 10 12 13 11 11 11 12 11 12
10 3 1 8 7 4 4 3 3 2 5 4 6 4 4 4 5 5 3 3 4 4 3 5 8 9 11 12 2 1 4 4 3 3 3 2 4 5 5 5 5 7 6 6 6 4 4 4 4 4 4 4 5 5 5 4 5 5 7 8 9 8 9 10 10 12 11 12 12 10 10 9 10 9 8 9 11 10 10 11 11 11 11 11 11 11
11 7 2 4 5 4 4 4 5 4 5 3 5 11 8 6 6 5 5 6 4 4 4 4 4 4 3 10 11 5 2 3 4 4 4 4 3 3 4 4 3 5 6 7 6 5 5 4 4 5 5 5 5 5 4 5 5 5 6 6 6 7 8 9 10 10 8 8 8 7 8 9 9 10 9 9 9 9 10 9 7 10 10 9 9 9
3 1 6 5 4 4 4 4 4 7 5 1 2 2 3 6 2 2 5 1 3 3 1 1 3 7 3 4 6 4 5 4 4 5 5 6 5 5 5 6 4 4 5 6 5 5 5 5 5 5 5 5 5 4 3 4 5 6 6 6 6 6 6 5 6 6 7 9 9 9 9 8 9 11 8 7 7 8 7 7 9 8 8 9 10 9
5 2 2 2 4 5 4 5 3 3 2 3 1 2 4 3 1 2 2 4 5 3 1 1 3 5 9 5 3 5 6 6 5 6 6 7 6 6 6 6 6 6 5 6 6 5 5 5 5 5 5 5 5 4 4 4 5 6 6 6 6 6 7 6 7 8 8 10 9 9 9 8 9 9 9 7 7 6 7 8 9 8 8 8 9 9
4 5 5 4 4 5 7 5 3 7 5 1 1 3 2 2 0 1 3 4 3 1 6 5 4 2 6 2 6 8 5 6 9 8 9 8 7 7 6 7 7 7 7 6 6 5 5 5 6 5 6 5 5 4 4 4 4 5 6 7 7 8 7 8 10 10 10 9 9 9 9 11 7 9 8 6 6 7 6 8 7 8 8 8 9 8
2 0 4 7 5 6 2 4 3 6 7 1 1 4 3 1 1 1 2 2 3 3 8 5 6 6 10 4 2 3 3 8 9 11 9 8 9 7 8 6 7 6 6 6 6 6 6 5 6 6 6 6 4 4 4 4 5 5 6 7 8 8 7 8 10 11 10 9 9 10 9 11 9 7 8 7 8 7 6 9 8 7 7 7 7 8
2 4 2 0 3 1 4 3 4 5 4 5 4 3 2 1 1 1 0 0 2 8 9 8 9 7 7 3 9 8 7 8 4 5 6 8 7 7 6 8 6 6 6 6 6 6 6 5 6 6 7 5 4 4 4 4 5 5 6 8 9 7 8 8 9 10 9 8 7 8 8 9 10 8 8 8 7 7 7 8 8 7 7 6 7 6
2 2 1 0 4 4 4 3 4 2 1 4 2 2 1 1 2 0 1 0 2 8 3 12 12 11 10 3 1 2 3 3 12 12 12 12 11 10 8 8 7 6 5 6 7 7 6 6 6 7 7 5 5 5 4 4 4 5 6 8 10 8 8 8 8 9 9 8 8 7 8 9 8 8 7 8 8 6 7 7 8 6 6 6 6 5
7 6 2 3 4 7 2 5 2 2 1 2 4 3 6 1 2 2 2 3 7 8 0 1 2 5 15 7 1 3 3 4 6 10 14 14 12 10 9 10 8 7 6 6 6 6 5 6 7 7 7 6 5 5 5 5 5 6 6 8 10 8 7 8 8 9 8 7 7 8 8 8 8 8 8 8 9 6 7 7 7 6 6 6 6 5
4 4 8 4 3 5 7 7 3 0 5 6 7 7 5 3 4 4 3 3 4 1 2 0 1 3 2 5 11 3 3 3 2 8 10 13 14 12 11 9 9 8 7 6 6 6 5 6 6 7 7 6 6 5 6 5 5 5 7 7 10 9 8 8 8 8 9 8 8 8 8 8 8 8 8 7 8 7 7 6 7 6 6 6 6 4
3 3 7 8 5 7 11 13 10 5 8 10 5 9 8 7 2 3 5 7 4 1 0 3 3 6 5 5 2 3 3 3 4 8 8 9 10 10 10 9 9 8 6 6 7 6 6 6 6 7 6 6 6 6 6 5 5 6 7 8 9 10 8 8 8 8 9 8 8 7 8 8 7 8 8 8 7 7 7 6 7 6 6 6 5 5
12 6 1 9 1 10 12 4 2 5 2 5 5 2 3 8 1 6 1 0 1 0 1 1 5 2 4 0 2 3 4 3 3 10 11 11 10 11 10 11 10 9 8 7 7 7 6 6 6 6 6 6 6 6 5 5 5 6 7 7 8 10 9 9 8 7 8 7 7 7 9 9 8 8 8 7 7 7 7 6 6 6 5 5 4 4
2 5 1 2 1 6 3 1 4 5 5 5 5 7 8 1 1 1 1 1 1 3 8 4 4 6 1 1 2 2 4 2 1 8 10 11 12 11 10 10 10 10 9 9 9 8 8 6 6 6 6 6 6 6 6 6 5 7 8 8 9 8 7 8 7 8 8 8 9 8 8 8 8 8 8 8 7 7 6 6 6 6 5 4 4 4
5 2 2 3 2 1 0 2 1 3 0 6 3 6 2 2 3 2 3 0 2 6 5 7 8 3 3 8 2 3 4 3 4 5 10 11 11 12 10 11 11 11 10 9 7 7 8 7 7 7 6 6 7 7 7 6 5 5 6 8 10 9 10 7 8 8 8 8 8 8 9 8 8 8 7 7 8 6 6 6 6 5 6 4 4 4
1 3 2 2 3 1 3 1 2 1 2 1 3 1 7 3 3 3 1 6 3 7 4 3 6 7 12 8 3 6 8 9 9 6 9 12 12 12 11 10 10 9 9 10 10 9 9 9 8 8 8 7 7 6 6 6 6 6 6 6 8 10 8 9 7 7 7 7 7 7 8 8 7 7 7 6 6 6 7 6 5 5 5 5 4 4
1 4 1 2 2 1 1 2 7 5 1 1 2 2 0 1 1 6 7 1 2 7 2 7 7 8 7 6 14 12 14 12 11 10 12 13 13 12 12 12 13 12 11 11 10 9 9 9 9 9 10 10 9 8 7 7 6 7 7 8 7 7 7 7 8 8 8 7 8 8 7 7 7 6 7 6 7 7 6 5 5 5 5 4 4 4
2 1 4 1 4 4 1 4 9 13 12 4 1 2 0 1 1 1 3 5 4 3 5 5 6 3 1 3 7 12 12 14 17 17 11 11 11 11 11 13 12 12 11 11 11 10 11 10 9 8 8 8 7 6 6 6 7 7 7 7 8 9 9 8 7 7 7 7 8 9 8 8 7 8 7 7 6 6 5 5 5 5 4 4 4 4
1 2 7 3 1 5 4 5 7 5 9 11 13 12 13 9 4 4 9 1 3 3 4 1 12 1 1 1 5 2 9 12 13 13 12 9 10 10 10 10 11 11 10 11 10 10 10 10 9 8 7 7 8 8 8 6 6 7 7 7 7 7 7 8 8 7 8 7 8 8 8 8 7 8 7 7 6 6 5 4 4 4 4 4 4 4
5 2 2 5 6 7 3 0 1 3 3 0 4 5 6 5 3 5 9 2 1 5 2 1 3 5 2 2 4 4 3 6 8 8 9 9 9 9 9 9 9 10 11 11 10 9 9 9 9 9 9 9 9 8 8 7 7 7 6 7 6 8 7 6 8 7 7 8 8 8 7 8 8 8 8 8 6 6 5 4 4 4 4 4 4 4
8 2 2 3 3 0 0 3 2 2 1 2 3 1 5 13 12 10 5 2 5 1 1 2 6 4 2 3 3 4 3 4 6 9 8 6 6 7 9 10 11 9 7 7 7 7 8 8 7 9 9 9 9 9 9 7 7 7 7 7 7 8 7 7 7 8 8 8 9 8 8 8 8 9 8 7 6 6 5 4 4 4 3 3 3 3
4 3 4 3 2 0 1 1 1 2 1 4 5 9 7 2 6 5 1 1 3 8 6 6 15 1 1 1 2 0 3 4 5 5 9 9 7 8 8 8 8 8 9 10 10 10 9 10 10 11 10 9 8 8 8 9 10 9 8 7 8 7 7 7 7 8 8 9 10 8 9 8 8 8 8 7 6 6 6 5 4 3 3 3 3 3
5 5 9 9 13 11 8 8 8 8 11 4 3 4 9 13 9 6 8 9 11 7 10 7 9 1 1 1 2 1 3 4 2 4 5 6 9 9 7 8 9 10 11 11 10 11 13 12 8 8 8 9 10 11 10 10 9 9 8 9 7 8 8 7 7 8 9 9 10 9 9 9 8 8 8 7 6 6 5 5 4 4 3 3 2 3
3 2 10 14 14 13 12 1 2 3 5 8 10 15 15 13 13 9 5 6 15 4 9 14 7 2 3 4 4 5 4 6 7 4 8 7 5 6 6 7 7 7 9 11 10 8 6 7 11 12 10 10 10 10 10 10 10 9 8 8 7 7 8 8 8 8 9 9 9 9 9 8 8 8 8 7 7 6 6 5 4 4 4 3 2 3
2 3 12 14 14 15 2 3 0 1 6 10 12 14 15 15 15 15 14 18 8 5 15 5 6 8 7 7 6 7 5 6 5 6 6 6 6 9 8 6 7 7 6 7 7 10 12 12 11 11 11 11 11 10 9 9 10 11 10 11 8 9 9 8 9 9 9 9 9 9 9 8 7 7 7 7 6 6 6 5 4 4 3 3 3 3
5 9 10 8 15 4 1 0 1 1 1 1 4 9 14 16 14 19 20 15 9 13 14 4 11 9 7 9 8 8 8 9 11 10 9 8 7 6 7 8 9 9 8 9 11 12 13 13 13 14 13 12 10 12 12 10 10 8 8 8 8 9 10 9 10 10 10 9 9 9 8 7 6 6 7 7 6 6 6 5 4 4 3 3 3 2
2 7 2 3 8 3 1 1 2 1 1 3 4 4 10 16 20 22 21 16 11 6 1 2 3 5 2 5 7 7 7 5 5 7 7 7 8 7 7 7 8 8 9 12 13 13 12 11 9 9 9 9 12 12 11 11 11 11 11 10 10 10 9 10 10 10 10 10 9 8 8 8 8 8 8 7 7 6 6 6 5 4 4 3 3 2
5 4 8 3 4 7 2 1 0 1 2 4 5 5 4 4 9 12 13 7 5 10 8 2 1 4 2 3 3 3 6 4 6 6 6 5 7 7 8 8 7 8 9 10 9 8 8 9 10 10 11 13 14 14 13 13 12 10 10 10 11 12 11 10 10 10 10 10 9 9 9 9 9 9 9 7 7 6 7 6 5 5 4 3 3 2
5 4 3 4 8 8 1 3 1 1 1 4 10 11 7 4 7 12 12 8 10 14 5 2 6 6 1 5 4 4 5 5 5 4 5 5 6 7 8 8 8 9 9 9 9 7 8 10 11 12 14 15 14 14 13 12 11 11 12 12 13 12 11 11 11 11 10 10 10 10 10 9 9 9 8 7 6 6 5 5 5 5 4 4 3 3
8 6 7 6 10 7 0 3 4 4 2 9 22 19 9 8 6 2 2 6 8 4 3 8 11 4 2 2 3 1 4 3 4 5 5 6 6 8 9 9 9 8 9 8 8 9 10 10 11 13 13 12 12 13 14 13 12 14 13 13 13 11 12 12 11 11 11 10 10 11 10 10 10 8 8 7 7 6 6 6 5 5 4 4 4 3
5 9 7 6 8 3 3 4 4 5 8 18 4 5 18 15 15 11 7 7 5 9 7 6 5 5 4 5 6 7 6 9 9 5 5 9 8 7 6 6 7 8 7 7 8 9 10 8 8 10 12 13 13 13 13 13 15 14 12 12 11 12 12 12 11 10 10 9 10 10 10 10 10 9 8 7 7 6 6 6 6 5 4 3 3 4
10 8 7 3 5 5 4 6 6 11 18 1 4 4 1 9 13 15 12 12 12 11 8 5 5 6 7 8 10 11 9 3 3 6 4 3 6 7 7 6 6 6 7 7 6 6 7 8 7 7 6 8 10 9 9 10 10 7 7 9 10 10 11 11 11 11 11 11 10 10 9 10 9 9 8 8 7 7 6 6 5 5 4 4 5 5
9 9 5 3 4 3 3 7 6 9 1 1 3 2 2 3 4 7 6 7 7 12 12 11 9 7 8 8 5 4 7 4 2 0 3 1 4 6 6 6 6 6 5 5 6 7 6 7 9 9 9 7 7 7 9 10 8 9 9 9 11 11 11 11 12 12 11 11 11 11 11 10 9 9 8 9 7 7 7 6 6 6 4 4 4 3
6 4 3 5 3 7 5 8 8 5 6 3 1 2 6 6 8 11 8 11 13 10 10 9 10 9 7 5 7 5 4 3 1 3 3 4 4 5 7 6 4 4 5 4 5 6 6 6 6 7 5 6 8 9 9 8 9 10 9 10 11 12 12 11 12 12 12 11 11 11 11 10 11 10 10 9 9 8 8 8 6 5 4 5 5 4
2 8 4 6 5 5 4 4 2 2 9 4 3 4 6 5 8 10 6 7 4 8 10 12 12 7 7 7 7 6 4 3 5 6 6 7 5 5 1 3 3 3 4 4 4 4 3 3 4 4 6 6 6 7 6 7 9 10 10 11 10 11 11 12 13 12 11 12 11 11 11 10 11 11 10 10 10 9 7 6 4 5 5 6 5 4
2 2 2 5 3 7 5 6 5 7 5 4 3 4 7 3 8 4 4 8 3 10 10 11 10 7 11 11 7 6 5 5 7 5 1 2 3 4 4 3 4 4 4 4 5 4 4 3 4 4 4 5 6 5 7 8 10 10 10 9 9 10 11 12 12 11 12 12 10 10 10 9 10 10 10 10 8 8 8 7 7 5 4 4 3 3
4 3 4 2 5 5 7 5 8 3 3 3 3 2 3 5 8 6 3 7 2 12 10 10 9 8 8 9 10 8 8 7 8 3 2 2 3 2 4 4 4 4 4 4 3 4 4 4 4 4 5 6 7 5 7 7 9 9 10 10 9 10 12 13 14 11 8 7 9 8 9 8 9 9 10 9 7 6 7 6 6 6 4 4 3 3
4 3 6 9 6 7 8 5 2 4 1 4 7 4 5 6 7 6 9 5 1 2 3 6 6 7 9 10 9 8 5 4 4 6 4 3 4 2 2 2 3 5 5 5 4 5 4 4 5 6 6 5 5 6 6 7 8 9 9 9 9 12 15 12 7 7 8 8 8 8 8 7 8 10 7 7 8 7 6 6 6 6 5 5 4 4
2 3 1 4 7 8 7 5 7 4 4 8 1 8 8 9 4 10 2 0 7 4 1 4 6 5 7 10 5 3 5 5 5 4 4 4 4 3 3 3 3 3 1 3 5 5 4 4 4 4 4 4 5 6 6 7 8 8 7 8 11 15 8 6 7 8 8 9 8 8 8 8 7 7 8 8 8 8 7 5 6 6 6 4 4 4
10 9 8 10 5 2 2 6 1 8 1 8 11 2 3 5 5 5 3 3 1 4 6 3 5 5 7 5 5 6 7 5 6 5 4 4 4 5 5 5 5 6 6 5 4 4 6 5 5 5 5 5 6 6 6 7 8 7 7 10 14 6 6 6 8 9 8 9 9 8 8 7 9 8 7 8 7 9 8 6 6 5 5 5 5 5
3 5 3 4 5 6 9 9 7 3 7 9 15 10 6 4 2 6 8 3 2 4 5 5 3 5 6 8 6 5 6 6 4 4 4 4 4 3 4 4 4 4 3 4 5 6 5 5 5 5 5 5 5 6 7 10 9 7 8 13 5 6 6 7 7 9 9 8 8 8 8 7 7 7 6 7 8 7 8 7 6 5 5 5 5 5
7 7 2 5 6 7 5 2 0 3 13 7 2 1 5 3 4 4 6 6 6 2 3 6 5 4 5 7 7 6 3 4 5 6 5 4 4 4 4 5 5 5 5 5 5 5 5 8 8 6 5 5 6 6 7 7 10 9 12 8 7 8 9 8 9 9 9 9 8 8 7 7 7 7 6 6 8 9 8 7 7 6 4 6 5 5
3 1 1 2 2 2 2 2 1 2 6 3 3 1 5 4 2 4 7 6 2 4 5 7 5 6 5 5 7 3 3 4 3 2 2 2 3 3 3 3 4 4 4 4 4 6 6 3 2 5 7 5 6 6 6 7 8 11 11 5 7 8 9 10 10 9 9 9 8 9 9 9 7 6 6 6 5 6 7 8 8 7 6 6 6 6
3 2 1 4 3 5 4 2 3 7 4 2 3 3 4 3 2 2 5 5 4 5 5 4 7 5 5 5 5 4 3 4 3 2 3 2 2 2 3 4 5 5 5 5 5 4 3 4 5 6 6 8 6 7 6 7 8 7 4 8 7 9 9 10 10 9 9 10 9 8 9 10 9 7 6 5 5 5 6 6 6 6 7 7 7 6
3 3 2 3 0 2 1 3 0 2 2 1 2 4 4 3 4 3 3 4 5 4 5 5 7 6 5 4 4 4 2 2 4 3 3 4 4 4 4 4 5 4 4 5 5 5 5 5 7 7 6 8 7 6 5 5 6 4 5 6 8 8 10 10 10 11 10 10 8 8 8 8 8 9 7 6 7 7 6 5 6 7 8 9 8 8
4 7 4 5 4 1 2 1 2 4 1 2 2 3 2 5 5 4 5 6 7 7 5 4 4 5 4 5 4 4 3 2 4 4 4 4 4 4 5 5 5 5 5 4 4 5 7 6 6 7 6 8 3 4 5 5 4 2 4 6 7 10 10 9 7 7 8 8 8 7 7 6 8 7 7 7 6 5 6 8 8 8 6 5 6 7
7 5 3 6 3 5 7 6 7 6 4 6 7 8 6 4 8 6 5 5 5 7 5 6 1 2 4 4 5 5 5 5 5 4 5 5 5 5 3 4 4 5 5 5 5 5 6 7 7 7 8 8 4 4 6 6 6 5 5 5 6 8 11 10 9 8 8 7 7 7 7 6 6 6 7 7 7 6 4 7 11 8 7 6 9 14
7 5 8 6 8 6 4 9 9 4 4 7 11 9 6 5 8 8 8 7 5 6 7 7 5 2 2 3 4 6 6 6 7 5 5 4 5 5 4 4 4 5 5 3 3 3 5 6 6 6 6 8 5 5 6 6 6 6 6 7 7 8 9 10 9 7 7 8 8 8 8 7 6 5 5 6 6 6 6 3 6 13 14 11 10 11
Wind_Direction
134 181 190 199 219 227 212 212 228 241 264 319 59 258 264 292 284 291 299 140 47 8 241 239 258 266 262 243 189 179 187 201 193 153 164 164 160 159 151 140 131 113 114 121 116 107 97 106 81 84 85 93 78 69 56 66 53 43 60 65 64 57 64 74 72 62 69 78 83 74 71 76 66 66 65 60 52 53 51 51 52 50 49 46 44 41
22 221 225 221 231 233 252 229 212 234 262 274 289 304 296 271 270 272 272 196 97 176 262 308 295 274 273 274 190 172 164 204 193 180 174 171 160 147 144 135 136 111 125 145 120 109 103 94 102 85 67 82 86 73 72 70 68 53 48 59 60 55 60 64 64 70 64 56 62 86 73 81 70 65 65 64 54 56 55 53 52 52 50 50 49 45
218 224 228 232 240 258 97 59 24 354 327 321 276 270 279 248 272 273 265 132 122 114 261 245 253 265 263 264 152 176 182 193 185 180 173 159 150 145 147 149 129 132 143 131 110 116 103 99 93 89 85 76 82 82 71 68 75 62 57 61 63 57 60 61 64 71 79 78 74 85 89 87 86 70 73 77 72 65 63 57 54 52 52 51 51 48
247 239 231 236 241 214 162 75 309 308 274 255 264 245 234 257 261 289 57 154 174 209 288 327 297 275 270 258 223 181 162 78 68 63 46 86 150 156 158 154 147 144 139 138 144 133 127 119 99 92 85 75 73 69 66 70 79 73 73 76 76 72 69 74 73 82 83 88 90 83 90 86 84 90 79 75 67 62 59 55 52 50 49 49 51 47
225 242 181 191 215 185 213 186 185 198 252 213 211 233 257 239 232 202 249 184 153 230 238 282 283 278 247 243 149 58 68 107 100 71 102 35 50 74 77 113 147 147 141 131 131 136 141 117 102 102 97 88 77 64 57 67 73 82 84 90 92 89 92 94 96 96 101 101 97 97 91 85 84 69 66 67 59 56 58 62 50 48 48 49 51 48
251 246 119 222 173 167 206 240 199 171 245 255 209 199 220 246 272 300 332 354 356 315 211 165 324 283 235 210 190 148 133 185 169 166 188 171 140 144 139 124 72 112 129 144 143 145 132 123 118 103 100 91 85 72 62 55 71 82 86 83 87 98 103 108 112 114 112 105 104 99 91 88 84 77 66 63 71 64 59 62 60 57 53 55 57 54
259 109 157 178 153 174 206 212 201 154 219 223 266 357 231 219 225 340 294 353 293 243 316 104 172 273 354 335 164 156 177 191 148 195 193 175 173 177 174 149 149 138 117 108 119 124 121 133 119 105 95 93 87 74 68 74 78 78 79 79 79 77 68 75 80 79 79 78 79 87 92 95 97 99 82 90 81 85 84 77 68 65 57 55 58 54
117 146 73 117 164 169 206 217 223 204 200 245 312 354 52 53 84 225 250 206 246 325 263 133 172 263 292 248 133 162 172 184 187 210 196 177 173 183 169 158 159 156 141 136 144 141 136 135 124 112 98 92 93 88 74 73 72 83 88 88 82 72 69 69 81 81 83 92 93 96 96 92 92 97 106 99 102 94 95 87 79 73 63 56 57 58
137 179 147 187 195 195 212 222 190 188 205 162 270 71 66 66 281 329 213 245 244 359 263 171 220 307 251 275 138 157 175 205 213 198 200 177 175 177 159 157 157 151 147 144 135 130 122 112 109 102 95 87 78 72 84 90 91 87 89 89 83 78 78 80 87 91 89 94 101 102 107 103 95 100 105 103 93 91 84 86 80 75 69 60 54 54
357 210 193 187 177 219 162 28 359 158 206 145 127 65 74 100 59 237 279 257 291 252 242 188 185 224 276 185 163 198 249 230 214 191 187 177 170 170 155 147 145 138 137 136 130 121 108 103 100 105 99 89 92 94 90 89 88 92 95 93 92 89 89 94 93 95 97 101 107 107 110 111 111 105 101 100 94 91 85 83 78 74 72 64 58 51
146 165 181 183 217 144 101 46 31 53 90 150 123 91 78 90 202 15 352 143 360 250 238 200 208 181 287 204 191 169 212 214 151 146 162 159 158 156 148 147 145 141 137 131 123 113 111 114 115 109 105 104 93 91 90 92 103 103 99 100 96 96 96 96 97 100 103 105 107 110 111 110 113 112 110 109 97 92 91 86 81 76 73 70 66 54
134 62 328 236 87 101 109 65 21 358 111 130 129 128 128 323 41 324 278 209 213 265 213 194 209 195 224 292 100 192 333 163 154 167 168 167 166 160 151 151 144 141 135 128 123 121 122 118 111 111 113 115 112 103 97 100 99 103 104 105 101 94 96 97 100 100 100 102 102 103 105 104 104 107 107 103 104 99 94 91 86 80 75 67 67 59
237 197 138 82 270 138 167 91 14 44 35 142 131 130 124 231 65 266 145 224 209 243 266 358 212 211 236 241 167 198 156 128 157 164 169 164 160 153 149 150 148 145 141 138 132 133 134 132 132 125 120 124 124 120 121 116 113 112 111 111 110 106 103 102 105 104 103 101 101 103 102 100 101 101 100 96 94 94 91 94 93 86 85 77 67 54
277 180 177 170 18 223 156 169 163 22 219 167 168 160 132 202 214 244 198 222 267 261 292 318 293 273 320 241 252 186 56 31 52 150 153 156 158 152 150 148 146 146 149 144 139 142 141 141 134 128 133 129 129 126 123 126 122 120 118 119 114 115 112 109 105 104 104 101 103 102 104 102 101 96 95 94 96 97 97 97 101 100 95 89 88 82
237 321 220 137 233 175 198 206 187 164 162 200 179 167 185 173 184 245 183 214 216 205 302 290 101 234 119 243 27 69 0 28 359 116 129 135 136 138 140 138 138 145 148 146 144 149 148 146 136 138 135 133 132 131 128 130 131 124 123 124 122 116 113 111 109 109 108 108 105 104 102 100 99 100 97 95 95 96 100 96 98 97 93 94 94 95
213 232 316 164 337 155 199 204 125 128 128 201 194 194 233 225 126 212 168 35 18 309 233 274 202 220 197 27 63 78 55 21 21 116 124 132 134 139 145 150 155 155 154 150 149 148 146 144 138 137 134 137 135 132 134 133 133 131 130 126 124 122 122 118 117 114 114 109 103 98 99 99 100 99 98 96 93 91 92 98 95 94 95 96 96 83
135 231 41 360 25 162 196 152 191 140 183 207 144 214 199 55 97 324 7 48 51 9 253 148 287 295 5 292 173 159 105 81 290 134 136 142 146 147 156 160 161 160 158 156 159 156 149 142 146 143 142 141 138 137 139 145 146 143 136 130 124 122 118 119 118 116 113 111 109 106 102 101 100 101 104 107 104 102 100 100 101 100 100 94 85 82
155 192 317 103 221 344 127 312 4 54 118 104 196 221 72 52 79 135 244 33 180 243 266 152 196 246 128 261 155 144 163 162 208 172 154 149 153 160 167 169 168 165 163 155 150 150 149 150 151 145 145 145 148 145 140 145 145 138 137 137 132 132 128 124 122 120 120 116 110 107 104 101 105 110 109 109 113 114 109 98 95 93 88 88 86 85
131 271 212 317 55 7 359 43 7 338 57 127 181 326 140 240 260 224 94 249 239 239 270 234 201 221 188 215 134 208 190 186 187 194 163 163 170 171 168 169 166 155 153 159 162 158 159 158 157 154 151 148 149 143 141 141 137 135 135 138 138 136 135 132 126 118 110 110 113 115 115 115 112 110 110 108 105 104 103 103 102 101 100 85 77 73
67 192 308 314 20 135 48 138 191 214 282 76 341 345 68 95 218 152 197 238 126 261 257 262 157 252 193 211 180 198 198 177 171 186 193 180 175 172 170 172 171 168 167 167 166 164 161 160 160 158 156 155 155 148 145 145 143 144 146 143 138 130 127 123 121 121 119 119 118 115 110 109 114 112 110 108 107 107 109 112 109 103 93 96 85 77
241 122 251 189 313 113 212 190 204 177 190 215 119 279 271 185 264 93 305 193 188 226 229 275 274 271 242 351 187 194 183 176 177 186 187 180 176 176 173 172 172 171 170 172 169 164 163 162 157 155 155 150 142 140 141 150 154 153 150 147 146 141 137 131 130 125 126 123 121 119 121 121 115 107 105 105 106 106 106 103 102 110 117 94 85 75
166 157 208 118 256 216 240 195 211 206 207 197 184 199 189 163 161 191 251 131 214 170 240 200 259 248 300 14 346 169 177 175 186 175 177 175 172 174 170 173 172 172 173 172 170 164 161 158 157 152 148 144 143 148 152 157 153 155 156 154 146 138 140 140 135 137 132 128 128 126 124 120 115 113 111 110 109 108 108 105 108 120 109 109 108 101
165 133 133 202 211 208 217 141 85 124 90 235 204 225 181 212 176 198 232 244 24 254 84 212 336 252 254 336 345 16 64 150 159 157 168 170 171 170 169 169 173 174 171 171 167 164 160 160 159 158 155 155 154 154 156 160 161 163 159 154 151 145 153 145 141 138 136 133 130 126 122 120 121 120 120 118 118 117 115 111 101 90 100 107 116 116
76 131 175 250 46 10 331 132 75 26 83 305 282 258 183 208 198 213 219 166 183 209 202 266 257 275 293 33 350 33 32 59 119 149 153 161 159 162 160 163 167 166 161 155 155 153 153 158 151 155 160 158 160 164 168 166 163 167 167 161 153 154 153 145 143 141 136 131 129 130 128 129 130 126 127 125 128 125 124 114 100 92 92 107 101 96
131 235 157 195 253 108 334 9 345 13 127 215 208 206 212 231 204 215 62 351 282 207 171 153 248 241 268 16 352 347 68 81 96 121 144 152 158 162 161 162 160 156 151 160 163 161 156 164 167 171 166 165 165 167 171 173 175 175 169 162 160 160 155 144 142 138 138 137 136 137 137 139 136 133 131 130 131 128 123 117 109 99 99 97 109 113
164 155 153 207 220 227 218 206 209 206 215 207 231 186 202 207 190 126 222 207 235 220 155 221 236 49 254 159 157 104 123 108 100 106 120 149 158 159 158 160 161 162 166 162 159 162 174 176 163 161 167 171 177 178 180 179 175 174 170 170 163 156 148 147 143 144 143 146 144 146 146 144 140 139 138 136 134 130 124 120 123 124 115 95 91 102
158 158 189 202 217 230 238 164 283 115 90 193 209 195 209 205 205 199 214 201 225 196 192 227 213 170 204 173 180 176 165 155 144 141 129 130 129 134 144 152 153 154 160 165 169 161 138 160 179 181 177 181 180 182 183 178 175 174 171 168 164 155 151 153 150 153 152 153 150 149 152 151 152 147 141 139 137 130 124 120 119 120 106 97 104 103
92 197 216 218 223 238 162 159 304 163 199 215 203 208 207 199 198 197 196 222 173 105 244 200 166 185 209 185 185 179 164 160 168 162 142 138 151 151 153 136 128 135 147 147 158 168 179 186 184 182 186 183 186 183 182 183 179 177 174 172 164 158 157 161 158 159 159 155 155 157 157 154 148 141 137 132 130 128 125 120 117 107 103 98 105 109
157 214 223 204 238 210 65 133 345 30 183 235 233 218 206 204 197 206 219 221 149 202 231 149 183 195 211 195 181 178 172 181 176 176 168 162 149 139 145 152 164 167 168 174 184 186 189 189 190 190 188 189 180 184 185 181 182 178 174 171 165 163 169 165 162 164 161 159 160 162 153 144 139 133 129 128 127 128 127 127 120 114 111 111 118 122
107 238 186 195 229 191 275 326 354 192 309 286 268 244 216 204 207 210 221 219 204 230 153 178 212 218 154 191 177 181 182 158 148 137 136 133 146 143 151 163 176 178 180 190 195 199 198 195 188 188 181 182 187 187 185 185 186 184 177 174 169 168 172 165 170 164 164 164 163 156 151 144 140 139 135 135 140 137 133 128 128 125 123 124 131 141
149 246 149 141 217 233 260 350 27 95 205 260 264 246 251 243 219 223 234 226 225 265 238 103 321 266 311 97 113 82 104 106 93 97 112 122 140 155 164 176 179 187 195 199 202 198 191 188 187 181 184 190 191 191 190 191 188 180 175 173 174 175 177 172 170 170 167 167 162 155 150 147 148 144 146 145 137 136 135 137 135 132 131 131 150 169
159 235 71 161 213 227 241 177 143 40 34 253 264 247 208 184 183 213 217 206 201 222 223 109 241 226 72 63 62 72 85 103 124 131 138 153 170 169 177 184 185 189 195 199 197 191 189 194 191 189 194 195 195 192 189 187 185 180 185 179 178 178 173 175 174 171 172 167 159 158 156 154 149 148 148 142 142 140 136 131 131 135 142 150 175 183
188 158 169 180 213 216 153 142 144 91 354 297 251 230 182 196 214 208 179 184 209 172 158 209 229 123 161 94 76 52 123 174 184 183 194 182 174 178 187 190 189 187 193 193 191 194 198 198 198 197 199 197 195 193 195 186 182 190 187 182 183 171 176 178 176 174 171 168 163 162 159 155 156 152 148 148 142 139 135 139 139 139 152 181 181 199
151 181 196 163 216 119 191 162 145 142 218 239 323 139 169 190 194 196 209 196 203 171 212 195 202 146 145 142 178 208 200 210 204 214 185 168 173 189 195 176 177 185 187 189 188 193 200 198 201 202 199 197 197 195 191 186 191 194 187 182 175 175 177 175 178 173 171 166 168 164 160 159 157 155 151 144 141 143 150 149 154 155 161 169 194 199
167 168 187 138 161 152 154 154 160 199 231 54 284 333 245 192 183 194 203 201 197 202 207 211 203 194 187 183 195 202 201 163 118 135 96 127 158 169 165 164 177 187 185 183 189 192 192 194 197 197 196 200 196 190 183 194 193 174 167 169 174 178 177 181 174 175 174 172 169 161 159 159 157 152 149 148 147 153 157 156 148 150 170 177 200 188
163 162 148 148 124 71 140 186 188 223 298 283 324 333 0 117 162 169 236 240 210 197 196 213 217 200 194 199 188 147 137 141 99 90 166 139 127 137 147 178 204 197 200 199 189 201 190 191 193 194 204 196 180 185 184 189 174 167 174 163 173 178 183 181 181 179 173 172 168 166 164 161 159 153 153 152 154 158 162 158 157 165 176 182 197 191
159 120 168 158 172 164 188 208 239 350 309 155 54 219 179 153 166 166 196 236 212 200 187 207 220 211 199 177 139 126 123 94 44 304 259 198 185 178 178 199 191 206 198 209 189 204 199 189 186 196 181 174 182 181 190 177 167 168 161 168 178 179 184 183 185 183 178 174 170 170 167 164 160 160 158 159 158 166 166 159 158 168 162 182 195 185
203 173 188 157 213 137 151 178 285 266 245 254 211 191 191 173 155 178 165 264 187 192 186 197 217 194 168 144 142 141 111 81 266 256 239 225 202 191 152 128 112 111 124 114 90 90 108 137 145 161 162 171 176 181 167 163 165 164 170 177 178 178 184 185 193 187 178 178 176 171 167 166 162 161 161 162 169 169 162 146 142 163 169 180 188 181
64 93 28 179 186 136 199 201 207 209 247 151 207 173 176 127 132 87 65 269 218 177 197 188 208 177 164 156 153 130 124 201 242 227 240 130 135 151 161 165 139 143 143 153 148 152 152 156 154 153 142 148 166 177 160 157 157 160 174 176 177 180 184 195 195 184 184 184 172 165 163 160 160 160 160 165 166 162 155 155 157 159 148 178 168 174
158 162 177 194 212 197 181 192 219 213 237 223 195 136 171 127 109 81 51 274 241 192 189 183 194 170 160 147 150 154 159 207 223 220 179 120 134 146 156 163 147 145 147 130 143 163 163 139 111 127 153 175 186 165 156 154 158 170 173 182 173 181 195 199 198 190 175 156 155 153 153 157 156 156 157 157 147 148 144 138 134 151 161 177 157 184
169 186 199 211 201 205 199 234 349 278 245 147 174 171 156 132 109 135 204 224 228 206 180 163 173 158 144 151 163 176 222 174 160 149 127 113 90 70 68 126 171 169 169 167 170 140 138 151 160 177 186 183 170 159 157 153 160 178 183 174 179 196 205 198 171 155 154 143 141 144 146 144 151 148 145 146 148 142 138 143 150 152 154 168 169 166
176 134 186 182 216 209 211 214 239 280 218 163 244 159 164 113 193 210 218 279 148 167 90 139 148 159 151 160 158 131 153 127 110 110 118 136 156 185 162 123 89 84 120 158 157 140 147 152 162 172 180 184 167 162 158 159 172 187 176 179 197 210 188 143 154 142 138 145 144 140 138 137 131 135 138 139 139 141 143 142 141 153 152 164 171 166
179 163 195 198 188 85 135 222 142 241 195 138 124 55 301 148 231 158 143 22 101 140 133 103 131 146 133 150 153 131 119 128 136 147 159 163 145 160 168 172 174 175 161 144 166 179 155 165 182 194 194 184 168 162 169 164 181 184 183 192 213 182 141 149 138 140 138 137 139 142 140 138 139 140 140 144 149 145 146 141 139 146 158 167 163 170
189 146 204 213 176 164 187 199 208 221 126 180 141 176 189 195 187 155 129 117 54 121 136 122 133 162 157 148 146 137 136 132 135 130 147 175 180 166 168 182 192 191 203 207 179 183 168 181 189 194 197 174 168 170 169 173 182 187 187 214 172 133 134 133 136 132 136 138 139 136 137 138 135 136 143 148 145 145 143 150 153 155 166 167 167 178
220 194 168 176 184 168 205 193 330 217 156 184 76 273 139 160 138 167 127 148 145 182 159 136 162 153 148 130 130 136 127 159 170 176 160 199 183 179 181 200 195 200 201 196 202 195 185 187 189 184 191 189 176 179 179 178 181 186 206 206 140 155 148 142 140 142 143 145 143 141 138 134 141 149 154 156 153 151 153 151 156 163 185 176 188 190
338 145 201 78 266 96 75 150 136 74 159 122 12 339 128 116 106 111 133 124 181 162 159 153 152 152 146 133 110 96 139 161 142 161 161 179 179 216 201 190 204 207 194 175 183 181 200 206 191 179 195 206 189 188 189 193 177 188 212 151 153 150 146 144 144 147 150 146 148 147 146 143 147 155 160 159 164 162 163 162 168 172 173 174 191 194
213 132 101 131 253 138 241 74 137 172 164 74 81 27 42 96 108 122 131 131 146 134 104 110 137 138 133 116 131 155 176 161 150 187 185 201 214 227 212 204 222 206 193 198 215 164 168 187 213 219 208 210 211 196 200 196 209 201 135 159 153 149 147 149 151 149 149 154 151 150 156 158 160 160 159 169 163 172 166 167 173 176 176 177 182 189
278 161 71 197 70 138 224 150 293 16 110 127 134 141 149 120 77 56 117 131 132 130 122 122 100 92 105 121 152 148 178 150 142 200 195 210 212 216 224 230 238 252 232 206 204 174 176 183 211 225 223 231 220 204 203 205 212 188 153 150 151 145 146 153 162 163 164 158 155 161 166 164 158 158 165 179 171 175 179 179 183 185 189 182 183 181
160 118 209 160 144 146 42 74 86 56 14 284 293 270 206 151 130 108 98 111 113 111 99 89 102 155 137 175 151 143 142 224 183 192 202 222 222 215 221 224 231 229 236 243 230 184 199 209 219 228 227 245 217 172 184 196 203 180 157 155 146 149 150 154 150 142 146 152 152 163 171 169 168 172 167 174 184 201 189 179 186 194 212 218 189 185
103 176 180 105 130 192 187 190 158 131 232 230 226 224 226 178 149 142 114 108 123 126 130 127 132 148 163 162 153 154 173 221 232 203 220 224 222 222 220 223 228 229 237 232 219 206 215 216 217 228 230 239 200 173 181 189 180 161 147 146 154 151 153 150 145 145 157 158 161 162 168 170 170 175 168 169 178 183 208 209 202 199 190 212 209 212
168 182 141 167 173 214 184 176 188 161 165 192 196 216 197 165 142 152 164 170 173 167 157 152 162 176 191 227 181 163 192 200 230 211 221 237 241 229 218 224 247 258 246 223 199 218 205 223 221 230 243 241 197 193 191 184 173 163 158 156 162 160 152 148 150 156 158 165 175 174 172 166 171 177 166 170 169 180 185 213 228 218 215 208 210 218